Meknes, Morocco

9:54 PM WEST on August 19, 2017 (GMT +0100)
Meknes

Weather History for GMFM - April, 2013

Change the Weather History Date:

Tuesday, April 9, 2013

  Actual Average (GMFF) Record (GMFF)
Temperature  
Mean Temperature 54 °F -  
Max Temperature 66 °F 70 °F 86 °F (2014)
Min Temperature 41 °F 50 °F 37 °F (1998)
Degree Days  
Heating Degree Days 12    
Growing Degree Days 4 (Base 50)    
Moisture  
Dew Point 47 °F    
Average Humidity 79    
Maximum Humidity 100    
Minimum Humidity 47    
Precipitation  
Precipitation 0.00 in 0.09 in - ()
Sea Level Pressure  
Sea Level Pressure 30.10 in    
Wind  
Wind Speed 2 mph ()    
Max Wind Speed 8 mph    
Max Gust Speed -    
Visibility 4.3 miles    
Events Fog    
Averages and records for this station are not official NWS values.
T = Trace of Precipitation, MM = Missing Value Source: Averaged Metar Reports

Daily Weather History Graph

Daily Weather History Graph

Search for Another Location

Airport or City:

Trip Planner

Search our weather history database for the weather conditions in past years. The results will help you decide how hot, cold, wet, or windy it might be!

Date:

Astronomy

Apr. 09, 2013 Rise Set
Actual Time 5:58 AM WET 6:48 PM WET
Civil Twilight 5:33 AM WET 7:14 PM WET
Nautical Twilight 5:03 AM WET 7:44 PM WET
Astronomical Twilight 4:32 AM WET 8:15 PM WET
Moon 5:12 AM WET (4/9) 6:10 PM WET (4/9)
Length of Visible Light 13h 40m
Length of Day
12h 49m
Waning Crescent, 1% of the Moon is Illuminated
Apr 9
Waning Crescent
Apr 10
New
Apr 18
First Quarter
Apr 25
Full
May 2
Last Quarter

Hourly Weather History & Observations

Time (WET) Temp. Windchill Dew Point Humidity Pressure Visibility Wind Dir Wind Speed Gust Speed Precip Events Conditions
12:00 AM 47 °F - 44 °F 83% 30.07 in 6 mi Calm Calm - -  
12:00 AM 46.4 °F - 42.8 °F 87% 30.04 in - Calm Calm - N/A   Clear
1:00 AM 46.4 °F - 42.8 °F 87% 30.04 in - Calm Calm - N/A   Clear
2:00 AM 46.4 °F 45.2 °F 44.6 °F 93% 30.04 in - SW 3.5 mph - N/A   Clear
3:00 AM 45 °F - 43 °F 91% 30.06 in 6 mi Calm Calm - -  
3:00 AM 44.6 °F - 42.8 °F 93% 30.04 in - Calm Calm - N/A   Clear
4:00 AM 46.4 °F - 42.8 °F 87% 30.04 in - Calm Calm - N/A   Clear
5:00 AM 44.6 °F - 42.8 °F 93% 30.06 in - SW 2.3 mph - N/A   Clear
5:40 AM 44.6 °F - 42.8 °F 93% 30.09 in 2.5 mi West 2.3 mph - N/A   Mostly Cloudy
6:00 AM 44 °F - 42 °F 88% 30.12 in 1 mi West 3.5 mph - -   Mist
6:00 AM 44.6 °F - 41.0 °F 87% 30.09 in 1.2 mi West 2.3 mph - N/A   Overcast
6:05 AM 44.6 °F 41.4 °F 44.6 °F 100% 30.09 in 0.4 mi West 5.8 mph - N/A Fog Fog
7:00 AM 44.6 °F 43.1 °F 44.6 °F 100% 30.09 in 0.4 mi SSW 3.5 mph - N/A Fog Fog
7:47 AM 48.2 °F - 46.4 °F 93% 30.12 in 1.2 mi SSW 3.5 mph - N/A   Scattered Clouds
8:00 AM 48.2 °F - 46.4 °F 93% 30.12 in 1.2 mi SSW 3.5 mph - N/A   Scattered Clouds
9:00 AM 52 °F - 49 °F 85% 30.14 in 2 mi West 2.3 mph - -   Mist
9:00 AM 51.8 °F - 48.2 °F 88% 30.12 in 2.5 mi West 2.3 mph - N/A   Scattered Clouds
9:21 AM 51.8 °F - 48.2 °F 88% 30.12 in 3.1 mi West 2.3 mph - N/A   Scattered Clouds
10:00 AM 57.2 °F - 48.2 °F 72% 30.12 in 3.7 mi WSW 2.3 mph - N/A   Scattered Clouds
11:00 AM 60.8 °F - 48.2 °F 63% 30.12 in 5.0 mi NW 2.3 mph - N/A   Scattered Clouds
12:00 PM 62 °F - 49 °F 53% 30.07 in 6 mi North 2.3 mph - -   Scattered Clouds
12:00 PM 62.6 °F - 50.0 °F 63% 30.09 in 6.2 mi North 2.3 mph - N/A   Scattered Clouds
1:00 PM 66.2 °F - 48.2 °F 52% 30.09 in 6.2 mi WNW 3.5 mph - N/A   Scattered Clouds
2:00 PM 66.2 °F - 50.0 °F 56% 30.09 in 6.2 mi NW 6.9 mph - N/A   Partly Cloudy
3:00 PM 65 °F - 49 °F 47% 30.04 in 6 mi NNW 8.1 mph - -   Scattered Clouds
3:00 PM 66.2 °F - 50.0 °F 56% 30.09 in 6.2 mi NNW 8.1 mph - N/A   Partly Cloudy
4:00 PM 64.4 °F - 50.0 °F 59% 30.09 in 6.2 mi NW 6.9 mph - N/A   Partly Cloudy
5:00 PM 64.4 °F - 48.2 °F 56% 30.09 in 6.2 mi NW 6.9 mph - N/A   Partly Cloudy
6:00 PM 62 °F - 50 °F 54% 30.08 in 6 mi NW 8.1 mph - -   Scattered Clouds
6:00 PM 62.6 °F - 50.0 °F 63% 30.12 in 6.2 mi NW 8.1 mph - N/A   Scattered Clouds
7:00 PM 59.0 °F - 50.0 °F 72% 30.12 in 6.2 mi NW 5.8 mph - N/A   Scattered Clouds
8:00 PM 55.4 °F - 51.8 °F 88% 30.15 in 6.2 mi NW 5.8 mph - N/A   Scattered Clouds
9:00 PM 54 °F - 51 °F 86% 30.17 in 6 mi West 2.3 mph - -   Scattered Clouds
9:00 PM 53.6 °F - 51.8 °F 94% 30.18 in - West 2.3 mph - N/A   Clear
10:00 PM 51.8 °F - 50.0 °F 94% 30.18 in - West 2.3 mph - N/A   Clear
11:00 PM 51.8 °F - 50.0 °F 94% 30.18 in - North - - N/A   Partly Cloudy